LRTCLRCK

Guest
Details From LRTC - CATALOI
To LRCK - CONSTANTA - MIHAIL KOGALNICEANU
Flight Number -
Tags generated
Created
Modified
Stats Distance 43 nm / 80 km
Max Altitude 2,400 ft / 732 m
Waypoints 3
Social Downloads 0
Likes 0
Share VATSIM

Download

Looking for another format? Having issues loading an existing format? Contact us
Advertisement - Login to hide

Notes

Basic altitude profile: - Ascent Rate: 2500ft/min - Ascent Speed: 250kts - Cruise Altitude: 35000ft - Cruise Speed: 420kts - Descent Rate: 1500ft/min - Descent Speed: 250kts

Route

LRTC BARUK LRCK

ID Type Via Altitude Latitude Longitude Leg Dist Tot Dist Heading (true) Name
O LRTC APT - 0 ft / 0 m 45.06249˚ 28.71431˚ - 0 nm - CATALOI
BARUK FIX - 2,400 ft / 732 m 44.54139˚ 28.56964˚ 31 nm 31 nm 191° / 191° -
O LRCK APT - 0 ft / 0 m 44.36211˚ 28.48845˚ 11 nm 43 nm 198° / 198° CONSTANTA - MIHAIL KOGALNICEANU

Altitude Profile

Advertisement - Login to hide

LRTC

Details ICAO LRTC (TCE)
Name CATALOI
Region Romania
Timezone Europe/Bucharest (UTC+3.0)
Stats Elevation 200 ft / 61 m (AMSL)
Location 45.062486° 28.714312°
Runways 1
Magnetic Variation 6.135° E

METAR

LRTC 242130Z AUTO 33001KT 9999 NSC 16/15 Q1014

Decode

TAF

Not found

Departure Runways

ID Width Length Bearing (true) Bearing (mag) Surface Threshold Offset Overrun Length
16 98 ft / 30 m 6,522 ft / 1,988 m 167.36° 161.22° Concrete 0 ft / 0 m 0 ft / 0 m
34 98 ft / 30 m 6,522 ft / 1,988 m 347.36° 341.22° Concrete 0 ft / 0 m 0 ft / 0 m

LRCK

Details ICAO LRCK (CND)
Name CONSTANTA - MIHAIL KOGALNICEANU
Region Romania
Timezone Europe/Bucharest (UTC+3.0)
Stats Elevation 353 ft / 108 m (AMSL)
Location 44.362114° 28.488454°
Runways 1
Magnetic Variation 5.975° E

METAR

LRCK 242130Z 02005KT 8000 NSC 16/15 Q1013 NOSIG

Decode

TAF

TAF LRCK 241700Z 2418/2518 VRB04KT CAVOK PROB40 TEMPO 2504/2510 VRB15G25KT 5000 TSRA SCT010 SCT040CB BECMG 2509/2511 09016KT BECMG 2516/2518 06006KT

Decode

Destination Runways

ID Width Length Bearing (true) Bearing (mag) Surface Threshold Offset Overrun Length
18 148 ft / 45 m 11,455 ft / 3,492 m 185.57° 179.59° Concrete 0 ft / 0 m 0 ft / 0 m
36 148 ft / 45 m 11,455 ft / 3,492 m 5.57° 359.59° Concrete 0 ft / 0 m 0 ft / 0 m

Approach Navaids

Runway Type Ident Frequency Range Bearing (true) Bearing (mag) Slope Elevation
18 Localiser ICT 109.50 MHz 18 nm / 33 km 185.57° 179.60° - 353 ft / 108 m (AMSL)
18 Glidescope ICT 109.50 MHz 10 nm / 19 km 185.57° 179.60° 3.50° 353 ft / 108 m (AMSL)
36 Localiser ICK 110.30 MHz 18 nm / 33 km 5.57° 359.60° - 315 ft / 96 m (AMSL)
36 Glidescope ICK 110.30 MHz 10 nm / 19 km 5.57° 359.60° 2.50° 315 ft / 96 m (AMSL)
36 DME ICK 110.30 MHz 18 nm / 33 km - - - 353 ft / 108 m (AMSL)